Location: Melbourne
(37.8170°S, 144.9670°E)
Time: 17:55:01
(UTC+11:00)

ERBS - Visible Passes

Search period start: 28 November 2014 00:00
Search period end: 08 December 2014 00:00
Orbit: 458 x 485 km, 57.0° (Epoch: 26 November)

Date Brightness Start Highest point End Pass type
(mag) Time Alt. Az. Time Alt. Az. Time Alt. Az.
28 Nov 4.5 05:06:27 10° SSW 05:09:59 35° SE 05:13:29 10° ENE visible
28 Nov 3.6 22:00:12 10° WNW 22:03:47 47° SW 22:07:26 10° SSE visible
29 Nov 4.9 04:36:15 10° SSW 04:39:37 29° SE 04:42:57 10° ENE visible
29 Nov 3.1 21:29:47 10° NW 21:33:25 60° SW 21:37:09 10° SE visible
29 Nov 6.3 23:10:57 10° SW 23:11:37 10° SSW 23:12:18 10° SSW visible
30 Nov 5.2 04:06:02 10° SSW 04:09:12 24° SE 04:12:20 10° E visible
30 Nov 2.7 20:59:22 10° NW 21:03:03 77° SW 21:06:48 10° SE visible
30 Nov 6.1 22:39:37 10° SW 22:41:07 12° SSW 22:42:38 10° S visible
01 Dec 5.4 03:35:50 10° SSW 03:38:45 20° SE 03:41:38 10° E visible
01 Dec 2.9 05:12:45 10° SW 05:16:24 45° NW 05:20:00 10° NNE visible
01 Dec 5.9 22:08:36 10° WSW 22:10:36 14° SSW 22:12:37 10° S visible
02 Dec 5.6 03:05:38 10° S 03:08:15 17° SE 03:10:51 10° ESE visible
02 Dec 2.6 04:42:16 10° SW 04:46:01 58° NW 04:49:43 10° NNE visible
02 Dec 5.8 21:37:42 10° WSW 21:40:05 16° SSW 21:42:29 10° S visible
03 Dec 5.8 02:35:28 10° S 02:37:43 15° SSE 02:39:58 10° ESE visible
03 Dec 2.4 04:11:48 10° SW 04:15:37 75° NW 04:19:22 10° NE visible
03 Dec 5.6 21:06:50 10° W 21:09:32 19° SW 21:12:15 10° SSE visible
04 Dec 5.8 02:05:20 10° S 02:07:09 13° SSE 02:08:57 10° ESE visible
04 Dec 2.5 03:41:20 10° SW 03:45:10 85° SE 03:48:56 10° NE visible
05 Dec 5.9 01:35:22 10° S 01:36:32 11° SSE 01:37:43 10° SE visible
05 Dec 2.9 03:10:53 10° SW 03:14:40 66° SE 03:14:51 65° ESE visible
06 Dec 3.9 02:40:25 10° SSW 02:43:04 38° S 02:43:04 38° S visible
07 Dec 4.5 02:09:57 10° SSW 02:12:10 29° S 02:12:10 29° S visible
